[[{"header":{"parameterUnit":"m.s-1","parameterCategory":1,"la1":30.2991,"la2":30.254,"lo1":-89.0895,"lo2":-89.0444,"dy":0.0017,"dx":0.0017,"nx":28,"ny":28,"refTime":"2026-01-29T09:00:00:Z","depth":0,"parameterNumber":2,"parameterNumberName":"U-component_of_WINDS"},"data":[0,0,0,0,0,0,0,0,0,0,0,0,0,0,0,0,0,0,0,0,0,0,0,0,0,0,0,0,0,0,0,0,0,0,0,0,0,0,0,0,0,0,0,0,0,0,0,0,0,0,0,0,0,0,0,0,0,0,3.4016,3.4016,0,3.4025,3.4025,3.4025,3.3979,3.3978,3.3977,3.3975,3.3984,3.3985,3.3987,0,0,0,0,0,0,0,0,0,0,0,0,0,3.3958,3.396,3.4016,3.4016,3.4016,3.4025,3.4025,3.4025,3.3979,3.3978,3.3976,3.3975,3.3983,3.3985,3.3987,0,0,0,0,0,0,0,0,0,0,0,0,0,3.3977,3.396,3.4016,3.3994,3.3992,3.4025,3.4025,3.4025,3.398,3.3978,3.3976,3.3974,3.3983,3.3985,3.3987,3.404,0,0,3.3994,3.3995,0,0,0,0,0,0,0,0,3.3976,3.3979,3.3997,3.3996,3.3994,3.3999,3.4008,3.403,3.398,3.3984,3.3975,3.3973,3.399,3.3992,3.3998,3.4041,3.4041,3.3994,3.3995,3.3996,3.3997,0,0,0,0,0,0,0,3.3975,3.3979,3.4019,3.3997,3.3995,3.3984,3.3985,3.4012,3.3998,3.3984,3.3981,3.3982,3.3989,3.3996,3.3998,3.4041,3.3994,3.3996,3.3997,3.3998,3.413,3.4132,0,0,0,0,0,0,3.3976,3.3978,3.4019,3.4019,3.398,3.3987,3.3987,3.3999,3.3998,3.3996,3.3984,3.398,3.3993,3.3995,3.3998,3.4061,3.3996,3.3998,3.4,3.4128,3.4131,3.4133,0,0,0,0,0,0,3.3975,3.3981,3.4019,3.3998,3.4002,3.399,3.4004,3.4,3.4007,3.3998,3.3995,3.3994,3.3992,3.3995,3.4031,3.406,3.3999,3.4001,3.4125,3.4129,3.4132,3.4187,0,0,0,0,0,0,3.3974,3.398,3.4,3.3999,3.4003,3.4051,3.4005,3.4002,3.4011,3.4006,3.4006,3.4004,3.399,3.4028,3.4033,3.4062,3.4003,3.4123,3.4127,3.4131,3.4182,3.4192,3.42,0,0,0,0,0,3.3972,3.4015,3.4002,3.4007,3.4028,3.4053,3.4055,3.4039,3.4014,3.4034,3.4028,3.4004,3.4057,3.4032,3.4037,3.4068,3.4121,3.4126,3.413,3.4178,3.419,3.42,0,0,0,0,0,0,3.4019,3.4014,3.3999,3.4043,3.4049,3.4045,3.4069,3.4051,3.4064,3.4058,3.4037,3.4037,3.4077,3.4076,3.4048,3.412,3.4084,3.4091,3.4119,3.413,3.4138,3.4137,3.4005,0,0,0,0,0,3.4035,3.4056,3.405,3.4089,3.4093,3.4081,3.4092,3.4078,3.4083,3.4085,3.4082,3.4088,3.4106,3.4118,3.4134,3.4183,3.4182,3.4207,3.4215,3.4223,3.4228,3.4255,3.4265,3.4149,3.4149,3.4149,0,0,3.4067,3.4067,3.4081,3.4099,3.4102,3.4124,3.4083,3.4108,3.4125,3.4089,3.4123,3.4121,3.4126,3.4169,3.4188,3.417,3.426,3.4229,3.4235,3.4236,3.4261,3.4272,3.4282,3.4152,3.4152,3.4151,0,0,3.4137,3.4139,3.4172,3.4177,3.4183,3.4175,3.4183,3.4183,3.418,3.4214,3.4188,3.4208,3.4238,3.4243,3.425,3.4325,3.4304,3.4331,3.4376,3.4402,3.4411,3.4419,3.4446,3.4456,3.4337,3.4337,3.4337,0,3.4176,3.4209,3.4192,3.4219,3.4228,3.4198,3.4232,3.4237,3.4247,3.4254,3.4234,3.4273,3.4274,3.4318,3.4337,3.4343,3.4352,3.433,3.4411,3.4419,3.4426,3.4452,3.4462,3.434,3.434,3.4339,3.4339,0,3.4257,3.4281,3.4307,3.4319,3.4331,3.4361,3.4349,3.4363,3.435,3.4344,3.438,3.4381,3.4397,3.4406,3.4393,3.4449,3.4438,3.4415,3.4378,3.4441,3.4465,3.4474,3.4345,3.4343,3.4342,3.4342,0,0,3.4355,3.4359,3.4368,3.4374,3.4379,3.4397,3.4427,3.4443,3.4456,3.4465,3.449,3.4518,3.4497,3.4505,3.4492,3.4516,3.4576,3.449,3.449,3.4506,3.4638,3.4655,3.4666,3.4562,3.4564,3.4565,3.4638,0,3.4423,3.4474,3.4461,3.4512,3.4534,3.4507,3.4533,3.4539,3.4536,3.4554,3.4549,3.457,3.4541,3.4546,3.4568,3.4564,3.4602,3.4558,3.4584,3.4586,3.4583,3.4678,3.4696,3.4764,3.4647,3.4648,3.4649,0,3.4509,3.4523,3.4576,3.458,3.4588,3.4612,3.4627,3.4645,3.4652,3.4647,3.4658,3.4641,3.4671,3.4635,3.4676,3.4647,3.4657,3.4657,3.466,3.466,3.4621,3.4682,3.4785,3.4795,3.4664,3.4662,3.4661,0,3.4576,3.4607,3.4643,3.4649,3.4654,3.4671,3.4674,3.4679,3.4691,3.4704,3.4711,3.4728,3.4736,3.475,3.4738,3.4713,3.4781,3.4745,3.4779,3.4779,3.4793,3.4792,3.4899,3.4801,3.4801,3.4801,3.48,0,3.4653,3.4687,3.4673,3.4696,3.4733,3.4718,3.4755,3.4755,3.4761,3.4782,3.476,3.4782,3.4765,3.4785,3.4776,3.4812,3.4816,3.4814,3.4811,3.4815,3.4816,3.4821,3.4816,3.4803,3.4803,3.4802,3.4802,0,3.4732,3.4725,3.4763,3.4765,3.4766,3.4794,3.4796,3.4817,3.4812,3.4841,3.4846,3.4839,3.4862,3.4852,3.4875,3.487,3.4916,3.4907,3.4913,3.4911,3.4945,3.4942,3.5059,3.5074,3.4967,3.4968,3.4968,0,3.4782,3.4807,3.4813,3.4826,3.4831,3.4853,3.4865,3.4852,3.4865,3.4877,3.4896,3.4917,3.4933,3.497,3.4967,3.4986,3.4977,3.5016,3.4979,3.4983,3.4977,3.4975,3.4978,3.5023,3.5025,3.5026,3.5027,0,3.487,3.4866,3.4884,3.4902,3.4918,3.4931,3.4942,3.4954,3.4942,3.4958,3.4981,3.4994,3.5019,3.504,3.5056,3.5059,3.5041,3.5039,3.5047,3.5052,3.5055,3.5054,3.4933,3.5036,3.5035,3.5034,3.5034,3.5033,3.4936,3.4958,3.4966,3.4988,3.4995,3.5007,3.5027,3.5026,3.5045,3.5065,3.5056,3.5083,3.5091,3.5112,3.5118,3.5139,3.5123,3.5136,3.5139,3.5142,3.5147,3.5052,3.5142,3.5141,3.5141,3.5141,3.5141,0,3.5023,3.5028,3.5048,3.5065,3.5083,3.5066,3.5078,3.5093,3.5118,3.5127,3.5144,3.5171,3.5192,3.5192,3.5211,3.5229,3.5221,3.5234,3.5232,3.5233,3.5159,3.515,3.524,3.524,3.524,3.524,3.524,3.524,3.5071,3.5108,3.5105,3.5145,3.5149,3.5176,3.5185,3.5196,3.5203,3.5235,3.5253,3.5253,3.5259,3.5279,3.5297,3.5297,3.5305,3.5321,3.5318,3.5248,3.5238,3.5229,3.522,3.5323,3.5323,3.539,3.539,3.5391]},{"header":{"parameterUnit":"m.s-1","parameterCategory":1,"la1":30.2991,"la2":30.254,"lo1":-89.0895,"lo2":-89.0444,"dy":0.0017,"dx":0.0017,"nx":28,"ny":28,"refTime":"2026-01-29T09:00:00:Z","depth":0,"parameterNumber":3,"parameterNumberName":"V-component_of_WINDS"},"data":[0,0,0,0,0,0,0,0,0,0,0,0,0,0,0,0,0,0,0,0,0,0,0,0,0,0,0,0,0,0,0,0,0,0,0,0,0,0,0,0,0,0,0,0,0,0,0,0,0,0,0,0,0,0,0,0,0,0,-9.1724,-9.1727,0,-9.1954,-9.1957,-9.1959,-9.1898,-9.1893,-9.1889,-9.1884,-9.2113,-9.2123,-9.2134,0,0,0,0,0,0,0,0,0,0,0,0,0,-9.1227,-9.1237,-9.1724,-9.1727,-9.173,-9.1954,-9.1957,-9.196,-9.1899,-9.1893,-9.1888,-9.1882,-9.211,-9.2122,-9.2135,0,0,0,0,0,0,0,0,0,0,0,0,0,-9.1448,-9.124,-9.1723,-9.1726,-9.1729,-9.1953,-9.1957,-9.1961,-9.19,-9.1893,-9.1886,-9.188,-9.2106,-9.2121,-9.2136,-9.2369,0,0,-9.2184,-9.219,0,0,0,0,0,0,0,0,-9.1436,-9.1467,-9.1723,-9.1727,-9.173,-9.189,-9.1865,-9.2097,-9.1902,-9.1835,-9.1884,-9.1876,-9.2044,-9.2064,-9.2122,-9.238,-9.239,-9.2185,-9.2194,-9.2201,-9.2206,0,0,0,0,0,0,0,-9.1421,-9.1456,-9.1815,-9.1727,-9.1731,-9.1715,-9.1738,-9.1909,-9.1975,-9.184,-9.1836,-9.1865,-9.2045,-9.2108,-9.2127,-9.2393,-9.2185,-9.2198,-9.2208,-9.2214,-9.2854,-9.2862,0,0,0,0,0,0,-9.1403,-9.1444,-9.1807,-9.1822,-9.1563,-9.1729,-9.1756,-9.1846,-9.1973,-9.1986,-9.187,-9.1861,-9.2084,-9.2109,-9.2135,-9.2417,-9.2201,-9.2216,-9.2224,-9.2847,-9.2856,-9.2864,0,0,0,0,0,0,-9.1393,-9.1437,-9.1798,-9.1632,-9.1677,-9.1745,-9.1846,-9.1854,-9.1917,-9.1996,-9.2007,-9.1923,-9.208,-9.2113,-9.2312,-9.2424,-9.2223,-9.2237,-9.2838,-9.285,-9.286,-9.2983,0,0,0,0,0,0,-9.1379,-9.1433,-9.1524,-9.1635,-9.1686,-9.1974,-9.1853,-9.1863,-9.1944,-9.1934,-9.2048,-9.206,-9.2077,-9.2289,-9.2328,-9.2442,-9.2249,-9.2828,-9.2843,-9.2857,-9.2969,-9.2997,-9.3021,0,0,0,0,0,-9.1362,-9.1547,-9.1529,-9.1573,-9.1801,-9.198,-9.2009,-9.2027,-9.1954,-9.2045,-9.2096,-9.2056,-9.2406,-9.231,-9.2353,-9.2474,-9.2821,-9.2839,-9.2856,-9.2958,-9.2992,-9.3021,0,0,0,0,0,0,-9.1445,-9.1562,-9.1542,-9.177,-9.1866,-9.1969,-9.2084,-9.2062,-9.218,-9.2165,-9.218,-9.2206,-9.241,-9.2461,-9.2353,-9.2706,-9.2602,-9.2629,-9.2665,-9.2699,-9.2724,-9.2707,-9.2262,0,0,0,0,0,-9.149,-9.1628,-9.1722,-9.1913,-9.1963,-9.2016,-9.2094,-9.21,-9.2199,-9.2239,-9.2304,-9.24,-9.2532,-9.2618,-9.2743,-9.2976,-9.3,-9.308,-9.3106,-9.3127,-9.315,-9.3278,-9.3315,-9.2921,-9.2921,-9.2921,0,0,-9.1584,-9.1665,-9.1751,-9.1932,-9.2007,-9.2149,-9.205,-9.2203,-9.2308,-9.2261,-9.2454,-9.2506,-9.2614,-9.2832,-9.293,-9.2881,-9.3264,-9.3149,-9.3166,-9.3177,-9.33,-9.3337,-9.337,-9.2933,-9.2931,-9.2929,0,0,-9.1828,-9.1904,-9.2072,-9.215,-9.2266,-9.23,-9.2341,-9.2449,-9.2482,-9.2677,-9.2645,-9.2769,-9.2995,-9.3073,-9.3143,-9.3419,-9.3387,-9.3459,-9.3595,-9.3719,-9.375,-9.3778,-9.3877,-9.3912,-9.3481,-9.3482,-9.3482,0,-9.193,-9.2144,-9.2161,-9.2318,-9.2399,-9.2366,-9.2537,-9.261,-9.276,-9.2816,-9.2759,-9.3043,-9.3113,-9.3349,-9.3417,-9.3474,-9.352,-9.3446,-9.3745,-9.3773,-9.3799,-9.3893,-9.393,-9.349,-9.3489,-9.3488,-9.3487,0,-9.2263,-9.2412,-9.2534,-9.2683,-9.2777,-9.2939,-9.298,-9.3073,-9.3071,-9.3111,-9.3309,-9.3393,-9.3535,-9.3591,-9.3589,-9.3828,-9.3794,-9.3741,-9.3637,-9.3844,-9.3933,-9.3969,-9.3501,-9.3498,-9.3496,-9.3494,0,0,-9.2565,-9.2724,-9.2768,-9.2836,-9.2962,-9.3076,-9.3237,-9.3379,-9.3459,-9.3563,-9.3698,-9.3891,-9.3844,-9.3923,-9.3929,-9.4039,-9.4253,-9.3972,-9.3975,-9.4022,-9.4521,-9.4561,-9.4602,-9.4233,-9.424,-9.4245,-9.4512,0,-9.2821,-9.3107,-9.3128,-9.3386,-9.3523,-9.3495,-9.3635,-9.3727,-9.3769,-9.389,-9.3934,-9.4072,-9.3998,-9.4046,-9.4153,-9.4204,-9.4353,-9.4185,-9.4357,-9.4363,-9.4332,-9.4649,-9.4691,-9.4939,-9.4547,-9.4553,-9.4557,0,-9.3157,-9.3275,-9.3547,-9.3656,-9.3714,-9.384,-9.3972,-9.4089,-9.4192,-9.4215,-9.4305,-9.4297,-9.446,-9.4351,-9.4577,-9.4462,-9.4534,-9.457,-9.458,-9.4596,-9.4473,-9.4674,-9.5018,-9.5055,-9.4612,-9.4608,-9.4604,0,-9.3351,-9.3578,-9.377,-9.3829,-9.396,-9.4049,-9.4108,-9.4205,-9.4289,-9.4403,-9.4458,-9.4589,-9.4661,-9.4763,-9.479,-9.4708,-9.5016,-9.4908,-9.5038,-9.5038,-9.5104,-9.51,-9.5464,-9.515,-9.5149,-9.5149,-9.5148,0,-9.3635,-9.3802,-9.386,-9.3978,-9.4165,-9.4187,-9.4371,-9.4423,-9.451,-9.4637,-9.4619,-9.4738,-9.4767,-9.4892,-9.4913,-9.5098,-9.513,-9.5152,-9.5156,-9.5154,-9.5151,-9.5201,-9.5185,-9.5159,-9.5156,-9.5154,-9.5153,0,-9.3883,-9.3928,-9.4136,-9.4244,-9.4275,-9.4408,-9.45,-9.4613,-9.4653,-9.4814,-9.4853,-9.4915,-9.5061,-9.5098,-9.5271,-9.5286,-9.5503,-9.549,-9.5469,-9.5469,-9.5597,-9.5585,-9.6007,-9.6064,-9.5712,-9.5715,-9.5718,0,-9.4061,-9.419,-9.4313,-9.4398,-9.4461,-9.4598,-9.4685,-9.4711,-9.4802,-9.493,-9.5028,-9.5172,-9.5289,-9.5522,-9.5582,-9.5714,-9.5704,-9.5843,-9.5724,-9.5719,-9.5707,-9.57,-9.5713,-9.5866,-9.587,-9.5873,-9.5875,0,-9.4372,-9.4389,-9.4516,-9.4652,-9.4757,-9.4864,-9.4966,-9.5037,-9.5077,-9.518,-9.533,-9.5421,-9.5599,-9.5742,-9.5876,-9.5934,-9.5912,-9.5913,-9.595,-9.5949,-9.5932,-9.5944,-9.5532,-9.5903,-9.59,-9.5898,-9.5896,-9.5895,-9.4592,-9.4705,-9.481,-9.4952,-9.5033,-9.513,-9.5242,-9.5297,-9.5424,-9.5573,-9.558,-9.5744,-9.5844,-9.6022,-9.6088,-9.6215,-9.6172,-9.6226,-9.624,-9.6253,-9.6264,-9.5912,-9.6239,-9.6238,-9.6237,-9.6237,-9.6236,0,-9.4903,-9.4969,-9.51,-9.5246,-9.5358,-9.533,-9.5442,-9.5537,-9.5682,-9.5778,-9.5895,-9.6067,-9.6206,-9.6277,-9.6415,-9.6503,-9.6496,-9.6538,-9.6532,-9.6546,-9.6294,-9.6248,-9.6542,-9.6542,-9.6542,-9.6541,-9.6541,-9.6541,-9.5078,-9.5269,-9.5299,-9.5529,-9.5594,-9.5756,-9.5823,-9.5912,-9.5989,-9.6184,-9.6301,-9.6347,-9.6433,-9.6577,-9.6703,-9.672,-9.6772,-9.682,-9.6832,-9.6595,-9.6563,-9.6534,-9.6491,-9.6831,-9.6831,-9.7073,-9.7075,-9.7077]}]]